| time (UTC) | temp F | wind direction | speed knots | gust knots | rain 1hr in | rain 24hr in | rain mn in | humidity % | barometer mb |
| 20260504200005 | 55 | 239 | 1.7 | 8.7 | 0.00 | 0.02 | 0.03 | 68 | 1007.4 |
| 20260504194505 | 55 | 246 | 1.7 | 7.0 | 0.00 | 0.02 | 0.03 | 68 | 1007.1 |
| 20260504193005 | 55 | 246 | 1.7 | 5.2 | 0.00 | 0.02 | 0.03 | 69 | 1007.1 |
| 20260504191505 | 56 | 225 | 0.9 | 7.0 | 0.00 | 0.02 | 0.03 | 68 | 1006.6 |
| 20260504190004 | 57 | 226 | 2.6 | 7.8 | 0.00 | 0.02 | 0.03 | 66 | 1006.6 |
| 20260504183005 | 58 | 257 | 2.6 | 8.7 | 0.00 | 0.02 | 0.03 | 64 | 1006.4 |
| 20260504180005 | 58 | 254 | 5.2 | 8.7 | 0.00 | 0.02 | 0.03 | 64 | 1006.0 |
| 20260504173005 | 60 | 250 | 4.3 | 8.7 | 0.00 | 0.02 | 0.03 | 59 | 1005.6 |
| 20260504081503 | 55 | 217 | 1.7 | 7.0 | 0.00 | 0.02 | 0.03 | 86 | 1004.5 |
| 20260504050005 | 48 | 6 | 5.2 | 10.4 | 0.00 | 0.02 | 0.03 | 91 | 1003.7 |
| 20260504041504 | 48 | 313 | 1.7 | 2.6 | 0.00 | 0.02 | 0.03 | 93 | 1003.1 |
| 20260504034504 | 48 | 59 | 0.0 | 4.3 | 0.00 | 0.02 | 0.03 | 93 | 1004.1 |
| 20260504030004 | 48 | 68 | 2.6 | 5.2 | 0.00 | 0.02 | 0.03 | 93 | 1004.1 |
| 20260504024503 | 48 | 32 | 2.6 | 4.3 | 0.00 | 0.02 | 0.03 | 93 | 1004.1 |
| 20260504023003 | 47 | 80 | 0.9 | 2.6 | 0.00 | 0.02 | 0.03 | 93 | 1004.8 |
| 20260504020003 | 48 | 90 | 0.9 | 2.6 | 0.00 | 0.02 | 0.03 | 92 | 1005.1 |
| 20260504014503 | 48 | 92 | 0.9 | 2.6 | 0.00 | 0.02 | 0.03 | 92 | 1005.8 |
| 20260504013003 | 48 | 90 | 0.9 | 1.7 | 0.00 | 0.02 | 0.03 | 92 | 1005.8 |
| 20260504010004 | 49 | 51 | 0.9 | 1.7 | 0.00 | 0.02 | 0.03 | 92 | 1005.6 |
| 20260504004503 | 49 | 49 | 1.7 | 2.6 | 0.00 | 0.02 | 0.03 | 92 | 1006.1 |
| 20260504003004 | 49 | 16 | 0.9 | 2.6 | 0.00 | 0.02 | 0.03 | 91 | 1006.1 |
| 20260503234503 | 49 | 163 | 0.0 | 7.0 | 0.03 | 0.02 | 0.03 | 91 | 1006.3 |
| 20260503223003 | 48 | 202 | 3.5 | 4.3 | 0.00 | 0.00 | 0.00 | 85 | 1007.4 |
| 20260503221504 | 48 | 38 | 0.0 | 1.7 | 0.00 | 0.00 | 0.00 | 84 | 1006.9 |
| 20260503214504 | 49 | 24 | 1.7 | 5.2 | 0.00 | 0.00 | 0.00 | 83 | 1007.2 |
| 20260503213004 | 49 | 21 | 3.5 | 5.2 | 0.00 | 0.00 | 0.00 | 83 | 1007.2 |
| 20260503211503 | 49 | 8 | 2.6 | 4.3 | 0.00 | 0.00 | 0.00 | 83 | 1007.2 |
| 20260503204504 | 50 | 11 | 4.3 | 6.1 | 0.00 | 0.00 | 0.00 | 84 | 1007.5 |
| 20260503203004 | 51 | 356 | 4.3 | 6.1 | 0.00 | 0.00 | 0.00 | 85 | 1007.7 |